Probability
0 0 0 0 0 0 0 0 0 0 0 0 0 0 0 0 0 0 0 0 0 0 0 0 0 0 0 0 0 0 0 0 0 0 0 0 0 0 0 0 0 0 0
1 0 0 0 0 0 0 0 0 0 0 0 0 0 0 0 0 0 0 0 0 0 0 0 0 0 0 0 0 0 0 0 0 0 0 0 0 0 0 0 0 0 0
2 1 1 1 1 0 0 0 0 0 0 0 0 0 0 0 0 0 0 0 0 0 0 0 0 0 0 0 0 0 0 0 0 0 0 0 0 0 0 0 0 0 0
3 3 2 2 2 1 0 0 0 0 0 0 0 0 0 0 0 0 0 0 0 0 0 0 0 0 0 0 0 0 0 0 0 0 0 0 0 0 0 0 0 0 0
4 4 3 3 2 1 0 0 0 0 0 0 0 0 0 0 0 0 0 0 0 0 0 0 0 0 0 0 0 0 0 0 0 0 0 0 0 0 0 0 0 0 0
5 5 4 4 3 1 0 0 0 0 0 0 0 0 0 0 0 0 0 0 0 0 0 0 0 0 0 0 0 0 0 0 0 0 0 0 0 0 0 0 0 0 0
6 5 4 4 2 1 0 0 1 1 0 0 0 0 0 0 0 0 0 0 0 0 0 0 0 0 0 0 0 0 0 0 0 0 0 0 0 0 0 0 0 0 0
6 5 4 3 1 0 0 1 1 1 1 0 0 0 0 0 0 0 0 0 0 0 0 0 0 0 0 0 0 0 0 0 0 0 0 0 0 0 0 0 0 0 0
7 6 6 4 2 1 1 1 1 1 0 0 0 0 0 0 0 0 0 0 0 0 0 0 0 0 0 0 0 0 0 0 0 0 0 0 0 0 0 0 0 0 0
11 10 9 8 5 3 2 2 2 2 1 0 0 0 0 0 0 0 0 0 0 0 0 0 0 0 1 1 1 0 0 0 0 0 0 0 0 0 0 0 0 0 0
14 12 12 12 10 7 6 7 8 5 3 2 3 3 2 1 0 0 0 0 0 0 1 1 1 1 2 2 1 0 0 0 0 0 0 0 0 0 0 0 0 0 0
19 16 15 17 16 12 11 15 15 12 9 7 7 7 5 3 1 0 0 0 0 0 1 1 1 1 2 2 1 0 0 0 0 0 0 0 0 0 0 0 0 0 0
22 20 19 20 19 16 15 17 18 17 16 13 11 10 8 5 3 1 1 1 1 1 1 1 0 1 1 2 1 0 0 0 0 0 0 0 0 0 0 1 0 0 0
21 22 21 22 21 17 16 17 17 19 20 18 14 12 10 7 4 2 1 2 3 2 2 2 1 1 1 1 1 0 0 0 0 0 0 0 0 0 0 0 0 0 0
19 21 22 23 22 19 17 16 17 18 20 19 16 14 12 9 6 4 3 4 5 4 4 4 3 3 2 1 0 0 0 0 0 0 0 0 0 0 0 0 0 0 0
18 18 19 22 23 20 16 15 16 17 18 17 15 13 12 11 10 7 5 6 6 5 5 4 4 5 4 2 1 0 1 1 0 0 0 0 0 0 0 0 0 0 0
17 15 15 18 19 17 15 15 16 15 14 13 12 11 11 12 12 10 7 6 6 6 6 5 4 4 4 3 2 1 2 2 1 0 0 0 0 0 0 0 0 0 0
14 14 15 16 15 13 15 16 15 13 11 11 10 10 11 12 12 10 8 5 4 6 6 5 4 3 3 3 3 2 2 2 2 0 0 0 0 0 0 0 0 0 0
11 12 14 14 13 12 15 17 16 13 11 11 11 11 11 10 10 9 6 5 5 5 5 5 4 4 4 3 2 1 1 2 2 0 0 0 0 0 0 0 0 0 0
10 11 12 13 13 13 14 18 18 15 13 12 12 12 10 7 6 5 4 5 7 6 5 4 5 5 5 3 2 0 1 2 3 2 1 0 0 0 0 0 0 0 0
9 11 12 12 11 9 11 15 17 16 15 14 13 11 8 4 2 1 2 5 7 7 5 4 5 6 7 7 5 2 1 2 3 4 4 1 0 2 2 2 0 0 0
11 11 12 12 9 5 4 7 11 14 15 13 12 10 5 2 1 1 1 2 3 4 4 3 4 7 10 12 10 7 6 5 5 7 7 3 2 5 6 4 1 0 0
11 11 12 12 9 4 1 1 3 8 11 11 10 9 6 4 3 2 1 0 1 1 1 2 3 5 10 13 13 12 12 12 10 11 10 6 4 6 6 3 1 0 0
7 9 11 11 8 3 1 0 1 3 7 9 9 9 8 7 4 3 2 2 3 2 0 1 2 3 5 8 10 11 13 14 12 13 13 9 6 5 5 3 2 0 0
3 5 6 6 5 2 0 0 1 3 6 8 9 8 7 6 3 1 3 5 6 4 2 1 1 1 1 2 4 6 9 11 11 12 14 12 8 6 5 5 4 2 1
3 3 2 3 3 1 0 0 1 4 7 9 9 6 4 2 1 1 3 6 7 6 5 3 1 0 0 0 0 2 7 10 11 12 14 13 9 7 5 5 5 4 2
Wind_Speed
5 5 4 3 4 4 5 4 3 4 4 4 4 4 4 4 4 4 7 9 7 6 7 7 7 7 6 6 6 6 6 6 6 6 5 5 5 6 6 5 5 5 5
5 5 5 4 4 4 3 3 4 4 3 3 3 4 3 4 4 3 6 9 8 6 6 6 6 7 6 6 6 6 6 6 6 6 6 5 5 5 5 5 6 6 5
6 5 5 5 4 4 4 3 4 4 4 3 3 4 3 3 4 4 4 4 7 9 7 6 6 6 7 7 7 7 6 6 6 6 6 6 6 6 6 6 6 6 6
7 6 5 5 5 5 5 4 3 3 3 3 3 3 3 3 4 4 4 4 3 5 9 8 7 7 7 7 7 7 7 7 7 7 7 7 7 7 7 6 7 7 6
8 7 5 4 6 5 4 4 4 3 3 3 3 3 3 4 4 4 4 5 4 3 4 9 8 7 7 7 7 7 7 7 7 7 7 8 8 8 8 8 8 8 8
8 7 6 6 7 5 5 3 4 3 2 3 4 3 3 3 4 4 5 5 5 5 5 5 7 9 10 8 7 7 7 8 8 8 8 8 8 8 8 8 8 8 8
8 7 6 7 6 5 5 6 5 5 4 3 3 3 4 5 4 4 4 4 5 5 4 4 5 4 7 11 9 8 8 8 8 8 8 8 8 8 9 9 8 8 8
9 8 7 7 7 5 6 6 5 4 4 4 4 3 3 5 5 6 5 5 5 5 6 7 5 4 4 4 8 10 9 9 8 8 8 8 8 8 8 9 8 8 8
10 9 9 8 7 8 7 7 7 7 5 5 4 4 3 3 3 5 6 5 5 5 5 5 7 6 7 5 5 11 10 8 8 9 8 8 8 8 8 8 8 8 8
11 11 10 10 9 8 7 8 8 6 6 5 5 4 4 3 3 3 5 6 7 7 6 5 6 6 7 6 4 4 9 9 9 9 9 8 8 8 8 9 9 9 9
12 12 11 10 9 8 8 8 6 8 7 7 6 5 5 4 6 5 3 4 5 6 6 6 5 5 5 6 6 7 10 9 9 9 9 9 9 9 9 9 9 9 9
10 13 12 11 10 9 9 8 8 10 8 7 6 5 5 5 6 5 5 5 4 4 5 4 5 5 5 6 7 6 9 10 10 9 10 10 10 10 9 10 10 10 10
9 11 11 10 10 9 9 9 9 9 9 8 8 7 6 6 5 5 5 5 4 4 4 6 6 5 6 6 5 8 9 10 10 10 10 10 10 10 10 10 10 10 10
9 10 11 11 11 11 10 9 8 9 8 8 9 8 6 6 5 5 6 5 5 5 5 6 4 5 5 5 3 7 7 11 11 11 10 10 10 10 10 10 10 10 10
8 10 11 12 12 11 10 10 8 9 8 9 8 8 7 6 6 6 6 6 6 6 5 4 4 4 4 4 3 6 7 8 10 10 10 10 10 10 10 11 11 11 11
10 10 11 12 11 11 11 10 9 9 9 8 6 7 6 6 5 6 6 6 6 6 6 4 4 3 2 4 4 6 6 6 9 10 10 10 10 11 11 11 11 12 12
11 11 12 12 12 11 11 10 10 9 10 9 8 8 8 7 6 6 6 6 6 6 7 6 4 2 3 6 4 5 6 7 7 12 11 10 10 11 11 11 12 12 12
11 12 12 12 12 12 11 12 12 11 10 10 9 8 9 7 7 7 6 7 6 6 7 8 5 4 5 5 5 6 7 6 7 8 11 10 11 11 11 12 12 12 12
11 11 11 11 11 11 11 11 11 10 10 10 9 9 9 8 8 7 7 6 5 6 6 7 7 4 5 4 5 6 7 5 8 6 10 12 12 12 12 12 12 12 12
10 10 10 10 10 10 10 10 10 10 9 9 9 9 8 8 8 8 7 6 6 6 6 7 7 5 5 5 5 6 6 6 7 7 6 6 9 12 13 13 13 12 12
8 8 9 9 9 8 8 9 9 10 9 9 8 8 7 6 5 5 5 6 6 6 6 6 6 6 5 4 5 6 6 6 6 6 6 6 7 8 9 13 14 12 11
7 7 7 7 7 6 4 5 6 6 7 7 7 6 6 7 6 6 4 3 4 6 6 6 6 6 5 6 5 6 6 6 7 4 6 7 7 7 7 6 5 8 10
5 5 5 5 5 4 5 6 5 5 5 5 5 5 4 4 5 6 6 6 5 6 6 6 7 7 6 5 6 7 6 7 7 6 5 8 6 7 7 5 4 5 7
4 4 4 3 3 3 5 6 5 4 3 2 2 2 3 3 3 4 4 4 4 4 4 5 5 6 6 6 6 7 7 8 8 7 6 8 7 7 7 6 5 6 7
4 3 3 3 3 3 4 4 4 3 3 2 1 0 1 1 1 1 3 3 3 3 2 1 2 3 3 4 5 6 6 6 7 6 4 6 7 7 7 7 4 7 8
5 4 4 4 4 4 5 4 3 2 3 2 2 3 5 3 3 2 2 2 2 2 2 1 2 3 3 3 3 4 5 6 6 5 3 4 6 6 7 5 4 3 5
Wind_Direction
161 148 149 159 165 151 162 166 155 140 145 151 148 136 130 120 123 132 125 146 156 160 162 162 164 163 162 164 165 166 163 162 159 157 158 159 160 162 162 163 163 164 162
158 157 164 171 167 165 154 162 152 161 169 151 152 141 156 142 136 146 137 150 164 172 178 179 178 177 176 177 179 182 183 181 177 178 180 182 185 186 186 185 182 182 182
164 173 171 179 171 158 154 176 159 172 177 172 164 156 159 164 151 151 152 157 164 175 186 192 193 193 192 192 195 196 195 195 189 192 195 197 200 203 203 201 197 197 200
177 186 183 183 166 178 180 169 187 183 175 178 169 177 161 162 171 170 174 177 178 169 175 187 199 202 205 206 205 204 203 202 200 204 207 208 210 210 211 213 213 211 212
186 197 191 174 181 189 188 194 165 196 180 185 179 176 189 177 172 188 180 182 181 196 173 163 185 200 209 213 213 211 210 208 209 212 215 218 218 217 218 220 222 222 223
191 201 191 182 200 192 190 196 166 187 198 202 209 170 192 181 191 181 201 191 186 197 200 175 184 191 202 213 219 221 218 215 217 220 224 227 226 222 222 224 225 228 230
191 203 204 181 206 201 199 194 192 184 199 198 205 194 190 202 197 194 212 212 194 199 202 201 219 201 186 196 208 216 221 222 222 225 229 232 231 227 226 227 228 230 234
198 201 211 201 199 202 201 205 203 210 201 198 222 214 203 195 202 208 203 215 217 206 211 207 208 215 242 198 175 197 214 223 226 226 227 230 232 229 229 230 230 231 234
201 211 205 215 204 211 201 205 204 210 215 205 224 239 235 222 192 188 210 218 215 221 225 216 214 210 223 230 196 188 201 214 224 228 227 226 226 226 227 230 231 233 234
203 206 210 211 213 216 207 209 207 211 216 220 209 237 267 311 264 206 199 206 211 221 234 233 223 213 219 226 213 193 190 207 219 226 229 227 224 222 225 229 235 236 235
204 207 209 209 211 218 212 220 210 218 217 226 223 216 221 226 248 263 239 214 208 215 216 222 233 232 221 227 226 206 183 204 217 225 227 227 225 224 223 228 233 236 235
202 206 209 207 210 217 210 212 215 215 226 230 236 232 227 226 231 240 245 239 233 220 213 224 232 230 230 229 225 167 185 206 218 224 226 227 226 226 227 231 235 239 240
202 203 207 207 211 215 214 212 211 218 216 219 227 233 239 245 249 251 260 258 254 236 212 225 225 229 231 229 217 176 202 208 218 223 225 226 228 229 229 232 236 241 243
207 199 205 209 212 213 213 210 214 213 213 217 225 229 238 239 242 248 256 263 257 249 226 233 225 223 232 235 205 196 217 201 214 220 224 227 229 231 232 233 235 238 241
206 203 208 210 210 210 211 207 215 214 211 216 219 214 229 234 236 244 246 252 261 266 254 220 230 220 224 235 199 233 241 197 205 217 223 227 230 233 235 236 237 238 240
206 205 211 213 210 208 206 207 209 209 211 213 222 222 225 234 233 237 241 243 251 262 273 268 233 232 233 254 197 236 246 186 205 216 222 227 230 233 235 236 237 239 239
203 205 210 213 211 210 207 206 212 205 211 211 212 214 220 235 232 235 234 237 241 247 257 264 254 233 232 263 245 247 248 244 225 204 215 225 232 235 237 238 238 239 240
204 205 208 209 210 210 209 208 212 210 212 212 213 216 222 222 224 239 239 239 244 250 256 262 261 242 230 241 248 257 259 250 258 198 203 220 229 234 237 239 240 241 242
206 205 205 207 209 208 209 212 214 213 213 216 215 215 220 223 223 226 233 240 242 240 246 258 257 258 252 249 249 249 257 264 267 232 203 214 224 232 236 238 239 241 243
202 201 202 206 209 209 209 210 213 214 214 215 215 215 216 219 222 225 227 233 242 248 242 251 258 254 248 244 249 257 257 242 254 264 254 238 221 221 230 233 235 237 241
197 196 197 200 206 208 210 209 211 211 210 213 215 215 217 220 229 234 241 234 234 242 247 249 256 258 255 252 253 258 265 269 258 258 264 259 242 237 226 224 226 231 237
188 187 191 195 200 206 183 194 214 213 210 212 213 213 214 209 207 207 233 259 269 257 260 264 263 265 268 265 267 271 272 271 269 255 261 266 264 265 262 258 207 205 225
171 174 179 185 189 174 151 175 199 218 212 213 213 215 224 218 206 211 202 209 233 251 260 268 274 278 279 277 277 270 266 275 281 289 280 275 272 271 270 265 191 210 227
157 153 154 154 157 133 130 151 162 198 208 203 201 208 216 228 220 224 224 222 227 233 236 239 257 273 284 295 283 276 279 272 264 262 265 274 280 279 282 278 204 211 228
134 126 122 123 124 105 108 140 159 170 164 163 160 125 200 214 57 185 215 221 231 246 214 202 255 275 321 335 313 287 279 277 276 277 267 269 282 288 282 274 251 207 223
127 117 98 88 89 85 79 102 157 166 152 135 100 74 57 50 52 92 191 215 234 264 286 246 228 246 260 264 258 276 288 285 285 288 318 295 291 295 288 282 291 280 252